Weather History for KGNV - August, 2014

Change the Weather History Date:

Monday, August 4, 2014

  Actual Average Record
Temperature  
Mean Temperature 82 °F 81 °F  
Max Temperature 89 °F 91 °F 99 °F (1899)
Min Temperature 74 °F 72 °F 66 °F (1901)
Degree Days  
Heating Degree Days 0 0  
Month to date heating degree days 0 0  
Since 1 June heating degree days 0 0  
Since 1 July heating degree days 0 0  
Cooling Degree Days 17 16  
Month to date cooling degree days 68 64  
Year to date cooling degree days 1489 1515  
Since 1 June cooling degree days 988 1005  
Growing Degree Days 31 (Base 50)    
Moisture  
Dew Point 74 °F    
Average Humidity 82    
Maximum Humidity 100    
Minimum Humidity 64    
Precipitation  
Precipitation 0.10 in 0.20 in 2.83 in (1925)
Month to date precipitation 0.30 0.81  
Year to date precipitation 32.15 29.99  
Snow  
Snow 0.00 in 0.00 in 0.00 in ()
Month to date snowfall 0.0 0.0  
Since 1 June snowfall 0.0 0.0  
Since 1 July snowfall 0.0 0.0  
Snow Depth 0.00 in    
Sea Level Pressure  
Sea Level Pressure 29.93 in    
Wind  
Wind Speed 7 mph (NNW)    
Max Wind Speed 22 mph    
Max Gust Speed 27 mph    
Visibility 9 miles    
Events Rain , Thunderstorm    
T = Trace of Precipitation, MM = Missing Value Source: NWS Daily Summary

Daily Weather History Graph

Daily Weather History Graph

Search for Another Location

Airport or City:

Trip Planner

Search our weather history database for the weather conditions in past years. The results will help you decide how hot, cold, wet, or windy it might be!

Date:

Astronomy

Aug. 04, 2014 Rise Set
Actual Time 6:50 AM EDT 8:19 PM EDT
Civil Twilight 6:24 AM EDT 8:45 PM EDT
Nautical Twilight 5:54 AM EDT 9:15 PM EDT
Astronomical Twilight 5:22 AM EDT 9:47 PM EDT
Moon 2:31 PM EDT (8/4) 12:52 AM EDT (8/4)
Length of Visible Light 14h 20m
Length of Day
13h 29m
First Quarter, 57% of the Moon is Illuminated
Aug 4
First Quarter
Aug 10
Full
Aug 17
Last Quarter
Aug 25
New
Sep 2
First Quarter

Hourly Weather History & Observations

Time (EDT) Temp. Heat Index Dew Point Humidity Pressure Visibility Wind Dir Wind Speed Gust Speed Precip Events Conditions
12:53 AM 77.0 °F - 73.9 °F 90% 29.94 in 10.0 mi NNW 4.6 mph - N/A   Clear
1:53 AM 75.0 °F - 73.0 °F 94% 29.93 in 10.0 mi NNW 6.9 mph - N/A   Partly Cloudy
2:30 AM 75.0 °F - 73.9 °F 96% 29.92 in 10.0 mi NNW 5.8 mph - N/A   Mostly Cloudy
2:53 AM 75.9 °F - 73.9 °F 94% 29.90 in 10.0 mi North 5.8 mph - N/A   Overcast
3:25 AM 75.0 °F - 73.9 °F 96% 29.91 in 10.0 mi North 6.9 mph - N/A   Scattered Clouds
3:53 AM 75.0 °F - 73.0 °F 94% 29.91 in 10.0 mi North 6.9 mph - N/A   Clear
4:26 AM 75.0 °F - 73.0 °F 94% 29.91 in 10.0 mi North 4.6 mph - N/A   Mostly Cloudy
4:35 AM 75.0 °F - 73.0 °F 94% 29.90 in 10.0 mi North 4.6 mph - N/A   Mostly Cloudy
4:51 AM 73.4 °F - 73.4 °F 100% 29.90 in 10.0 mi NNW 3.5 mph - N/A   Scattered Clouds
5:09 AM 73.9 °F - 73.0 °F 97% 29.90 in 10.0 mi Calm Calm - N/A   Mostly Cloudy
5:38 AM 73.9 °F - 73.0 °F 97% 29.91 in 10.0 mi NNW 6.9 mph - N/A   Mostly Cloudy
5:45 AM 73.9 °F - 73.0 °F 97% 29.91 in 10.0 mi NNW 5.8 mph - N/A   Scattered Clouds
5:53 AM 73.9 °F - 73.0 °F 97% 29.90 in 10.0 mi North 6.9 mph - N/A   Scattered Clouds
6:18 AM 73.9 °F - 73.0 °F 97% 29.91 in 10.0 mi North 5.8 mph - N/A   Mostly Cloudy
6:29 AM 73.9 °F - 73.0 °F 97% 29.92 in 10.0 mi North 5.8 mph - N/A   Mostly Cloudy
6:53 AM 75.0 °F - 73.9 °F 96% 29.92 in 10.0 mi North 5.8 mph - N/A   Overcast
7:53 AM 75.0 °F - 73.9 °F 96% 29.94 in 3.0 mi NW 3.5 mph - N/A   Overcast
8:53 AM 77.0 °F - 75.0 °F 94% 29.94 in 10.0 mi NNW 4.6 mph - N/A   Overcast
9:24 AM 77.0 °F - 75.0 °F 94% 29.96 in 10.0 mi North 8.1 mph - N/A   Overcast
9:53 AM 78.1 °F - 75.0 °F 90% 29.96 in 10.0 mi NW 5.8 mph - N/A   Overcast
10:39 AM 80.1 °F 85.1 °F 75.0 °F 85% 29.96 in 10.0 mi NW 6.9 mph - N/A   Overcast
10:46 AM 80.1 °F 85.1 °F 75.0 °F 85% 29.96 in 10.0 mi WNW 6.9 mph - N/A   Overcast
10:53 AM 80.1 °F 85.1 °F 75.0 °F 85% 29.96 in 10.0 mi NW 6.9 mph - N/A   Overcast
11:53 AM 84.0 °F 92.6 °F 75.9 °F 76% 29.96 in 10.0 mi WNW 5.8 mph - N/A   Overcast
12:00 PM 82.9 °F 90.2 °F 75.0 °F 77% 29.96 in 10.0 mi North 8.1 mph - N/A   Mostly Cloudy
12:28 PM 82.9 °F 90.8 °F 75.9 °F 79% 29.96 in 10.0 mi Variable 5.8 mph 16.1 mph 0.00 in Rain Light Rain
12:53 PM 82.0 °F 88.6 °F 75.0 °F 79% 29.94 in 10.0 mi NNW 11.5 mph 21.9 mph 0.00 in   Overcast
1:53 PM 84.9 °F 93.3 °F 75.0 °F 72% 29.93 in 10.0 mi NNW 9.2 mph 21.9 mph N/A   Scattered Clouds
2:53 PM 87.1 °F 96.3 °F 75.0 °F 67% 29.91 in 10.0 mi North 13.8 mph 20.7 mph N/A   Partly Cloudy
3:53 PM 89.1 °F 99.1 °F 75.0 °F 63% 29.90 in 10.0 mi NNE 9.2 mph - N/A   Partly Cloudy
4:53 PM 82.0 °F 87.9 °F 73.9 °F 76% 29.91 in 10.0 mi NNE 13.8 mph - 0.00 in Rain Light Rain
5:09 PM 77.0 °F - 75.0 °F 94% 29.93 in 2.5 mi North 10.4 mph 27.6 mph 0.03 in Rain , Thunderstorm Thunderstorms and Rain
5:19 PM 77.0 °F - 75.0 °F 94% 29.93 in 2.0 mi NNW 9.2 mph 18.4 mph 0.08 in Rain Rain
5:29 PM 77.0 °F - 75.0 °F 94% 29.92 in 4.0 mi North 8.1 mph - 0.10 in Rain , Thunderstorm Light Rain
5:40 PM 78.1 °F - 75.0 °F 90% 29.92 in 8.0 mi NNW 6.9 mph - 0.10 in Rain , Thunderstorm Light Thunderstorms and Rain
5:53 PM 79.0 °F - 75.9 °F 90% 29.91 in 10.0 mi North 8.1 mph - 0.10 in Rain Light Rain
6:53 PM 81.0 °F 86.7 °F 75.0 °F 82% 29.91 in 10.0 mi NNE 9.2 mph - 0.00 in   Partly Cloudy
7:53 PM 80.1 °F 85.1 °F 75.0 °F 85% 29.93 in 10.0 mi North 8.1 mph - N/A   Partly Cloudy
8:53 PM 77.0 °F - 75.0 °F 94% 29.92 in 10.0 mi NW 4.6 mph - N/A   Clear
9:53 PM 77.0 °F - 75.0 °F 94% 29.94 in 10.0 mi WNW 3.5 mph - N/A   Clear
10:24 PM 77.0 °F - 75.0 °F 94% 29.96 in 10.0 mi WNW 3.5 mph - N/A   Mostly Cloudy
10:53 PM 77.0 °F - 75.0 °F 94% 29.96 in 10.0 mi NNW 3.5 mph - N/A   Mostly Cloudy
11:53 PM 75.9 °F - 75.0 °F 97% 29.96 in 10.0 mi West 3.5 mph - N/A   Clear